Location: Asheville, NC
(35.6000°N, 82.5500°W)
Time: 20:11:10

HO-68 - Pass Details

Date: 13 March 2018
Orbit: 1193 x 1204 km, 100.1° (Epoch: 19 March)

Event Time Altitude Azimuth Distance (km) Brightness Sun altitude
Rises 20:09:52 0° 180° (S) 4,074 ? -7.7°
Reaches altitude 10° 20:12:34 10° 185° (S) 3,115 ? -8.2°
Maximum altitude 20:19:25 50° 259° (W) 1,490 ? -9.6°
Drops below altitude 10° 20:26:21 10° 334° (NNW) 3,137 ? -11.0°
Sets 20:29:05 0° 340° (NNW) 4,106 ? -11.6°
